Location: Newark
(44.1667°N, 8.2500°E)
Time: 11:28:15
(UTC+00:00)

S-56A Canister/Altair - Pass Details

Date: 14 December 2019
Orbit: 634 x 2498 km, 38.9° (Epoch: 27 January)

Event Time Altitude Azimuth Distance (km) Brightness Sun altitude
Rises 09:44:48 0° 250° (WSW) 5,566 11.9 19.1°
Reaches altitude 10° 09:48:09 10° 248° (WSW) 4,744 11.6 19.3°
Maximum altitude 10:02:06 69° 169° (S) 2,619 11.0 20.2°
Drops below altitude 10° 10:16:45 10° 91° (E) 4,953 11.9 21.0°
Sets 10:20:20 0° 89° (E) 5,815 12.2 21.2°
